STARLINK-3307

decayed
NORAD ID: 50164 Int'l Des: 2021-125 Owner: SPXS Country: US Constellation: starlink
LEOCIRCULAR

关于 STARLINK-3307

正在加载描述...

高度历史

Altitude vs Time

uPlot chart will show altitude changes over time

两行轨道根数

1 50164U 21125J 22167.07672121 .99999999 12430-4 81965-2 0 9998
2 50164 53.1826 190.9484 0010425 320.3567 41.0592 16.39511435 31177
Epoch: Jun 16, 2022 • Age: 28525 hours

当前状态

Position data unavailable
发射日期 Dec 18, 2021
运行时间 3.7 years
衰减日期 Jun 16, 2022
类型 internet

技术详情

分类 Payload
质量 290.00 kg
干质量 270.00 kg
总质量 290.00 kg
长度 0.20 m
直径 2.80 m
跨度 9.00 m
形状 Box + pan
制造商 SPXS
平台类型 Starlink
阶段状态 Reentered
所有者/国家 SPXS/US

大型星座

Loading constellations...